カタログに戻る

STARLINK-3266

運用中通信VLEO
NORAD 50195·PAYLOAD·🇺🇸 United States

打ち上げ Dec 18, 2021 から Vandenberg Space Force Base

Loading…

次のパス (今後24時間)

TLE

最新Source: CelesTrak SupGP

元期: Sep 14, 2026, 14:08 UTC

1 50195C 21125AR  26257.58937500  .00010632  00000+0  34183-3 0  2570
2 50195  53.1578 100.8464 0001324  94.5478 351.7325 15.31703909    16

AllMySatでSTARLINK-3266をリアルタイム追跡

Download on the App Store